Content
SEND FEEDBACK

Daily
Averages
Monthly
Summary
United States of America

GREENSBURG, INDIANA


Home > North America > United States > Indiana
Elevation: 949 feet     Latitude: 39 20N     Longitude: 085 28W

WEATHER
 
SELECT A DAY
Number of Records: 177,746;   Date Range: 10/15/98 - 12/16/14
 
SHARE

PRINT THIS DATA

[ ← Previous Day ]
WEATHER ALMANAC - JANUARY 29, 2014
[ Next Day → ]
[ °C ]   °F
Weather ElementAverageHighLow
Temperature14.4 °F25 °F (3:53 pm)1.9 °F (3:53 am)
Dewpoint0.6 °F6.1 °F (1:53 pm)-6 °F (1:53 am)
Humidity55.3 %69 % (3:53 am)44 % (2:53 pm)
Barometer30.33 in30.37 in (1:53 am)30.27 in (11:53 pm)
Wind Speed10.9 mph17.3 mph (2:53 pm)
Weather ElementAverage
Visibility10 mi
Wind DirectionSSW (211.7 °)

Weather ElementTotal
Precipitation---
Heating Degree Days51.6 (Base 65)
Averaged from 23 records on January 29, 2014
WEATHER CONDITIONS BREAKOUT
WIND DIRECTION BREAKOUT
WEATHER BY HOUR - JANUARY 29, 2014
[ °C ]   °F
Local TimeTemperatureDewpointHumidityBarometerVisibilityWind DirectionWind SpeedGust SpeedPrecipitationEventsConditions
1:53 AM3.0 °F-6.0 °F66 %30.37 in10.0 miSSW (210°)6.9 mphClear
2:53 AM3.9 °F-6.0 °F64 %30.36 in10.0 miSouth (190°)8.1 mphClear
3:53 AM1.9 °F-6.0 °F69 %30.36 in10.0 miSSW (200°)6.9 mphClear
4:53 AM3.9 °F-5.1 °F66 %30.34 in10.0 miSSW (210°)8.1 mphClear
5:53 AM3.0 °F-5.1 °F69 %30.35 in10.0 miSSW (200°)9.2 mphClear
6:53 AM5.0 °F-5.1 °F63 %30.34 in10.0 miSSW (210°)9.2 mphClear
7:53 AM3.9 °F-5.1 °F66 %30.35 in10.0 miSSW (200°)8.1 mphClear
8:53 AM7.0 °F-4.0 °F61 %30.36 in10.0 miSW (220°)9.2 mphClear
9:53 AM12.0 °F-0.9 °F56 %30.37 in10.0 miSW (230°)13.8 mphClear
10:53 AM16.0 °F-0.9 °F47 %30.37 in10.0 miWSW (240°)15.0 mphClear
11:53 AM18.0 °F1.0 °F48 %30.36 in10.0 miWSW (240°)11.5 mphClear
12:53 PM21.0 °F5.0 °F50 %30.33 in10.0 miSW (230°)13.8 mphClear
1:53 PM23.0 °F6.1 °F48 %30.30 in10.0 miWSW (250°)16.1 mphClear
2:53 PM24.1 °F5.0 °F44 %30.30 in10.0 miSW (230°)17.3 mphClear
3:53 PM25.0 °F6.1 °F45 %30.30 in10.0 miSW (220°)16.1 mphClear
4:53 PM25.0 °F6.1 °F45 %30.30 in10.0 miSW (220°)13.8 mphClear
5:53 PM23.0 °F6.1 °F48 %30.30 in10.0 miSW (230°)9.2 mphClear
6:53 PM19.9 °F5.0 °F52 %30.31 in10.0 miSSW (210°)8.1 mphClear
7:53 PM19.9 °F3.9 °F50 %30.31 in10.0 miSouth (190°)6.9 mphClear
8:53 PM19.0 °F3.9 °F52 %30.30 in10.0 miSouth (190°)9.2 mphClear
9:53 PM18.0 °F3.9 °F54 %30.30 in10.0 miSouth (180°)9.2 mphClear
10:53 PM17.1 °F3.9 °F56 %30.28 in10.0 miSouth (180°)10.4 mphClear
11:53 PM18.0 °F3.0 °F52 %30.27 in10.0 miSouth (190°)13.8 mphClear
Hourly data recorded from KGEZ, located miles away from Greensburg, Indiana







STORIES FROM OUR PARTNERS